NORTHEAST SUFFOLK  -  Special Weather Statement Special Weather Statement        NORTHERN NASSAU  -  Special Weather Statement Special Weather Statement        NORTHWEST SUFFOLK  -  Special Weather Statement Special Weather Statement        SOUTHEAST SUFFOLK  -  Special Weather Statement Special Weather Statement        SOUTHERN NASSAU  -  Special Weather Statement Special Weather Statement        SOUTHWEST SUFFOLK  -  Special Weather Statement Special Weather Statement      

Active alerts

Northern Nassau
  Details for Northern Nassau Special Weather Statement
Southern Nassau
  Details for Southern Nassau Special Weather Statement
Northwest Suffolk
  Details for Northwest Suffolk Special Weather Statement
Southwest Suffolk
  Details for Southwest Suffolk Special Weather Statement
Northeast Suffolk
  Details for Northeast Suffolk Special Weather Statement
Southeast Suffolk
  Details for Southeast Suffolk Special Weather Statement


WXM80 ListenWXM80 Stop

You find our weather info also at:

UK Metoffice

WeatherCloud

Weather Underground

Northeastern Weather Network

AWEKAS

Citizen Weather Observer Program (CWOP)

HAMweather, WeatherForYou, PWS Weather


Weather Underground History page Text

Daily Summary for May 5, 2017 Units:  Metric    English   Both
« Previous Day
Next Day »
Daily Weekly Monthly Yearly Custom
  High: Low: Average:
Temperature: 16.1 °C 9.8 °C 12.8 °C
Dew Point: 15.7 °C 6.2 °C 11.7 °C
Humidity: 98 % 77 % 93 %
Wind Speed: 16.7 km/h 0 km/h 4.3 km/h
Wind Gust: 31.5 km/h - -
Wind:- - SE
Pressure: 1019.2 hPa 999.2 hPa -
Precipitation: 35.81 mm    
Historical Graphs
 
 
Tabular Data for May 5, 2017
Time Temperature Dew Point Pressure Wind Wind Speed Wind Gust Humidity Rainfall Rate (Hourly)
00:04 10.1 °C 6.3 °C 1019.2 hPa SE 0.3 km/h 1.9 km/h 77 % 0 mm
00:09 10.1 °C 6.3 °C 1019.2 hPa SE 0.8 km/h 1.9 km/h 77 % 0 mm
00:14 10.1 °C 6.2 °C 1018.8 hPa Calm   1.6 km/h 77 % 0 mm
00:19 10.1 °C 6.2 °C 1018.8 hPa Calm     77 % 0 mm
00:24 10.1 °C 6.2 °C 1018.8 hPa SE 0.2 km/h 1.9 km/h 77 % 0 mm
00:29 10.1 °C 6.2 °C 1018.8 hPa SE 0.5 km/h 1.9 km/h 77 % 0 mm
00:34 10.1 °C 6.2 °C 1018.8 hPa SE 1.1 km/h 1.9 km/h 77 % 0 mm
00:39 10.1 °C 6.2 °C 1018.8 hPa Calm   1.9 km/h 77 % 0 mm
00:44 10.1 °C 6.4 °C 1018.8 hPa Calm   1.9 km/h 78 % 0 mm
00:49 10.1 °C 6.4 °C 1018.8 hPa Calm   1.9 km/h 78 % 0 mm
00:54 10.1 °C 6.4 °C 1018.5 hPa SE 1.6 km/h 3.7 km/h 78 % 0 mm
01:00 10.1 °C 6.4 °C 1018.5 hPa ESE 1 km/h 5.6 km/h 78 % 0 mm
01:05 10.1 °C 6.4 °C 1018.5 hPa ESE 0.5 km/h 5.6 km/h 78 % 0 mm
01:10 10.2 °C 6.5 °C 1018.5 hPa ESE 0.8 km/h 5.6 km/h 78 % 0 mm
01:15 10.2 °C 6.5 °C 1018.5 hPa SSE 3.1 km/h 3.7 km/h 78 % 0 mm
01:20 10.2 °C 6.5 °C 1018.5 hPa SE 0.5 km/h 1.9 km/h 78 % 0 mm
01:25 10.2 °C 6.7 °C 1018.5 hPa Calm   1.9 km/h 79 % 0 mm
01:30 10.2 °C 6.7 °C 1018.5 hPa SE 1.3 km/h 3.7 km/h 79 % 0 mm
01:35 10.2 °C 6.7 °C 1018.5 hPa SE 0.3 km/h 1.9 km/h 79 % 0 mm
01:40 10.2 °C 6.7 °C 1018.5 hPa Calm     79 % 0 mm
01:45 10.2 °C 6.9 °C 1018.5 hPa Calm     80 % 0 mm
01:50 10.2 °C 6.9 °C 1018.5 hPa SE 0.3 km/h 1.9 km/h 80 % 0 mm
01:55 10.2 °C 6.9 °C 1018.2 hPa Calm   1.9 km/h 80 % 0 mm
02:00 10.2 °C 6.9 °C 1018.2 hPa Calm   1.9 km/h 80 % 0 mm
02:05 10.2 °C 7.1 °C 1018.2 hPa Calm     81 % 0 mm
02:10 10.2 °C 7.1 °C 1018.2 hPa Calm     81 % 0 mm
02:15 10.2 °C 7.1 °C 1017.8 hPa SE 0.3 km/h 1.9 km/h 81 % 0 mm
02:20 10.3 °C 7.2 °C 1017.8 hPa Calm     81 % 0 mm
02:25 10.3 °C 7.3 °C 1017.5 hPa SE 0.8 km/h 1.9 km/h 82 % 0 mm
02:30 10.3 °C 7.3 °C 1017.5 hPa SE 0.3 km/h 1.9 km/h 82 % 0 mm
02:35 10.3 °C 7.5 °C 1017.2 hPa ESE 0.2 km/h 1.9 km/h 83 % 0 mm
02:40 10.3 °C 7.7 °C 1016.8 hPa ESE 1.6 km/h 3.7 km/h 84 % 0 mm
02:45 10.3 °C 7.7 °C 1016.8 hPa East 3.1 km/h 5.6 km/h 84 % 0 mm
02:50 10.3 °C 8.1 °C 1016.5 hPa East 2.4 km/h 5.6 km/h 86 % 0 mm
02:55 10.2 °C 8.2 °C 1016.1 hPa East 3.2 km/h 5.6 km/h 87 % 0.25 mm
03:00 10.2 °C 8.3 °C 1016.1 hPa East 4.7 km/h 7.4 km/h 88 % 0.25 mm
03:05 10.1 °C 8.2 °C 1016.1 hPa East 3.7 km/h 5.6 km/h 88 % 0.25 mm
03:10 10.1 °C 8.3 °C 1016.1 hPa East 2.7 km/h 5.6 km/h 89 % 0.25 mm
03:15 10 °C 8.3 °C 1016.5 hPa ESE 4 km/h 5.6 km/h 89 % 0.25 mm
03:20 9.9 °C 8.4 °C 1016.5 hPa SE 2.9 km/h 9.3 km/h 90 % 0.25 mm
03:25 9.9 °C 8.3 °C 1016.5 hPa East 3.4 km/h 7.4 km/h 90 % 0.25 mm
03:30 9.9 °C 8.3 °C 1016.5 hPa ESE 3.9 km/h 5.6 km/h 90 % 0.25 mm
03:35 9.8 °C 8.3 °C 1016.1 hPa East 2.6 km/h 7.4 km/h 90 % 0.25 mm
03:40 9.8 °C 8.4 °C 1016.1 hPa East 3.1 km/h 5.6 km/h 91 % 0.25 mm
03:45 9.8 °C 8.4 °C 1015.8 hPa East 3.7 km/h 7.4 km/h 91 % 0.25 mm
03:50 9.8 °C 8.4 °C 1016.1 hPa ESE 1.8 km/h 5.6 km/h 91 % 0.25 mm
03:55 9.8 °C 8.4 °C 1016.1 hPa SE 1.9 km/h 7.4 km/h 91 % 0 mm
04:00 9.8 °C 8.4 °C 1015.8 hPa ESE 3.7 km/h 5.6 km/h 91 % 0 mm
04:05 9.8 °C 8.4 °C 1015.8 hPa ESE 1.6 km/h 3.7 km/h 91 % 0 mm
04:10 9.8 °C 8.4 °C 1015.8 hPa East 3.4 km/h 5.6 km/h 91 % 0 mm
04:15 9.9 °C 8.5 °C 1015.8 hPa East 2.7 km/h 5.6 km/h 91 % 0 mm
04:20 9.9 °C 8.7 °C 1015.5 hPa East 3.4 km/h 5.6 km/h 92 % 0 mm
04:25 9.9 °C 8.7 °C 1015.5 hPa East 1.1 km/h 5.6 km/h 92 % 0 mm
04:30 9.9 °C 8.7 °C 1015.5 hPa East 2.4 km/h 5.6 km/h 92 % 0 mm
04:35 9.9 °C 8.7 °C 1015.1 hPa East 4 km/h 5.6 km/h 92 % 0 mm
04:40 9.9 °C 8.7 °C 1014.8 hPa East 4.2 km/h 7.4 km/h 92 % 0 mm
04:45 9.9 °C 8.7 °C 1014.8 hPa East 4.5 km/h 9.3 km/h 92 % 0 mm
04:50 9.9 °C 8.7 °C 1014.8 hPa East 3.9 km/h 7.4 km/h 92 % 0 mm
04:55 10 °C 8.9 °C 1015.5 hPa East 1.6 km/h 3.7 km/h 93 % 0 mm
05:01 10 °C 8.9 °C 1015.1 hPa SE 3.1 km/h 6.4 km/h 93 % 0 mm
05:06 10 °C 8.8 °C 1015.5 hPa East 3.5 km/h 9.3 km/h 92 % 0 mm
05:07 10 °C 8.8 °C 1015.5 hPa East 2.9 km/h 5.6 km/h 92 % 0 mm
05:12 10 °C 8.8 °C 1014.8 hPa East 5.5 km/h 9.3 km/h 92 % 0 mm
05:17 10 °C 8.8 °C 1014.8 hPa ESE 1.4 km/h 3.7 km/h 92 % 0 mm
05:22 10.1 °C 8.8 °C 1014.8 hPa ESE 1.1 km/h 3.7 km/h 92 % 0 mm
05:27 10.1 °C 8.8 °C 1014.8 hPa ESE 2.7 km/h 5.6 km/h 92 % 0 mm
05:32 10.1 °C 8.8 °C 1014.8 hPa ESE 2.7 km/h 4.8 km/h 92 % 0 mm
05:37 10.1 °C 8.8 °C 1014.8 hPa ESE 1.1 km/h 5.6 km/h 92 % 0 mm
05:42 10.1 °C 8.9 °C 1014.8 hPa ESE 1.3 km/h 3.7 km/h 92 % 0 mm
05:47 10.1 °C 8.9 °C 1014.8 hPa ESE 1.1 km/h 3.2 km/h 92 % 0 mm
05:52 10.2 °C 8.9 °C 1014.4 hPa ESE 1.1 km/h 5.6 km/h 92 % 0 mm
05:57 10.2 °C 8.9 °C 1014.4 hPa ESE 3.2 km/h 5.6 km/h 92 % 0 mm
06:03 10.2 °C 9.2 °C 1014.4 hPa ESE 1.8 km/h 5.6 km/h 93 % 0 mm
06:08 10.3 °C 9.2 °C 1014.1 hPa East 4 km/h 4.8 km/h 93 % 0 mm
06:13 10.3 °C 9.3 °C 1014.1 hPa East 4.7 km/h 8 km/h 93 % 0 mm
06:18 10.4 °C 9.3 °C 1014.1 hPa East 3.4 km/h 5.6 km/h 93 % 0 mm
06:23 10.4 °C 9.3 °C 1014.1 hPa East 4.7 km/h 7.4 km/h 93 % 0 mm
06:24 10.4 °C 9.3 °C 1014.1 hPa East 3.2 km/h 5.6 km/h 93 % 0 mm
06:29 10.4 °C 9.2 °C 1014.1 hPa East 3.5 km/h 8 km/h 92 % 0 mm
06:34 10.5 °C 9.3 °C 1014.1 hPa East 5 km/h 7.4 km/h 92 % 0 mm
06:39 10.6 °C 9.4 °C 1014.1 hPa East 5.5 km/h 7.4 km/h 93 % 0 mm
06:42 10.6 °C 9.5 °C 1014.1 hPa East 4 km/h 9.3 km/h 93 % 0 mm
06:47 10.6 °C 9.5 °C 1014.1 hPa East 5.1 km/h 8 km/h 93 % 0 mm
06:52 10.7 °C 9.6 °C 1013.8 hPa East 4.3 km/h 8 km/h 93 % 0 mm
06:57 10.7 °C 9.6 °C 1013.8 hPa East 4.3 km/h 7.4 km/h 93 % 0 mm
07:02 10.7 °C 9.4 °C 1013.8 hPa ENE 4.2 km/h 6.4 km/h 92 % 0 mm
07:07 10.7 °C 9.5 °C 1013.8 hPa ENE 3.9 km/h 6.4 km/h 92 % 0 mm
07:12 10.7 °C 9.5 °C 1013.4 hPa East 6.1 km/h 9.3 km/h 92 % 0 mm
07:17 10.8 °C 9.6 °C 1013.4 hPa East 6 km/h 9.3 km/h 92 % 0 mm
07:23 10.8 °C 9.6 °C 1013.4 hPa East 5.5 km/h 9.7 km/h 92 % 0 mm
07:28 10.8 °C 9.6 °C 1013.4 hPa East 5.5 km/h 9.3 km/h 92 % 0 mm
07:33 10.8 °C 9.6 °C 1013.4 hPa East 6.8 km/h 11.1 km/h 92 % 0 mm
07:38 10.8 °C 9.7 °C 1013.4 hPa East 7.2 km/h 11.1 km/h 93 % 0 mm
07:43 10.9 °C 9.8 °C 1012.8 hPa East 7.1 km/h 9.7 km/h 93 % 0 mm
07:48 10.9 °C 9.8 °C 1012.8 hPa East 8.5 km/h 11.1 km/h 93 % 0 mm
07:53 11 °C 9.9 °C 1013.1 hPa East 7.2 km/h 11.1 km/h 93 % 0 mm
07:58 11.1 °C 9.9 °C 1012.8 hPa East 7.1 km/h 9.3 km/h 93 % 0 mm
08:03 11.1 °C 10 °C 1012.8 hPa East 6.6 km/h 9.7 km/h 93 % 0 mm
08:08 11.2 °C 9.9 °C 1012.8 hPa East 5.8 km/h 9.7 km/h 92 % 0 mm
08:13 11.2 °C 9.9 °C 1012.8 hPa East 6 km/h 9.3 km/h 92 % 0 mm
08:18 11.3 °C 10.2 °C 1012.4 hPa East 6 km/h 9.7 km/h 93 % 0 mm
08:23 11.4 °C 10.1 °C 1012.4 hPa East 6 km/h 9.7 km/h 92 % 0 mm
08:28 11.4 °C 10.2 °C 1012.1 hPa East 5.3 km/h 9.3 km/h 92 % 0 mm
08:33 11.5 °C 10.2 °C 1012.1 hPa East 6.1 km/h 9.7 km/h 92 % 0 mm
08:34 11.6 °C 10.3 °C 1012.1 hPa East 6.4 km/h 9.3 km/h 92 % 0 mm
08:39 11.6 °C 10.3 °C 1012.1 hPa East 7.4 km/h 11.1 km/h 92 % 0 mm
08:44 11.7 °C 10.2 °C 1012.1 hPa ENE 7.2 km/h 11.3 km/h 91 % 0 mm
08:49 11.8 °C 10.3 °C 1011.7 hPa East 4.2 km/h 8 km/h 91 % 0 mm
08:54 11.9 °C 10.7 °C 1011.7 hPa East 5 km/h 9.3 km/h 92 % 0 mm
08:59 12.1 °C 10.6 °C 1011.7 hPa East 7.9 km/h 9.7 km/h 91 % 0 mm
09:04 12.2 °C 10.7 °C 1011.4 hPa ESE 6.1 km/h 9.3 km/h 91 % 0 mm
09:10 12.3 °C 10.8 °C 1011.1 hPa East 7.1 km/h 9.7 km/h 91 % 0 mm
09:15 12.4 °C 10.9 °C 1010.7 hPa East 4.8 km/h 11.1 km/h 91 % 0 mm
09:20 12.5 °C 11.1 °C 1010.7 hPa East 4.3 km/h 8 km/h 91 % 0 mm
09:25 12.6 °C 11.1 °C 1010.7 hPa East 7.1 km/h 11.3 km/h 91 % 0 mm
09:30 12.8 °C 11.4 °C 1010.7 hPa East 5.8 km/h 9.3 km/h 91 % 0 mm
09:35 13 °C 11.6 °C 1010.4 hPa East 6.4 km/h 9.3 km/h 91 % 0 mm
09:40 13.2 °C 11.6 °C 1010 hPa East 5.8 km/h 11.3 km/h 90 % 0 mm
09:45 13.3 °C 11.7 °C 1010 hPa East 9.2 km/h 13 km/h 90 % 0 mm
09:50 13.6 °C 12 °C 1009.4 hPa East 7.7 km/h 11.3 km/h 90 % 0 mm
09:55 13.8 °C 12 °C 1009.4 hPa East 9.3 km/h 13 km/h 89 % 0 mm
10:00 13.9 °C 11.8 °C 1009.4 hPa ENE 7.7 km/h 13 km/h 87 % 0 mm
10:05 13.8 °C 11.7 °C 1009.4 hPa East 8.2 km/h 11.1 km/h 87 % 0 mm
10:10 13.8 °C 11.7 °C 1009.4 hPa East 5.8 km/h 7.4 km/h 87 % 0 mm
10:15 13.8 °C 11.7 °C 1009 hPa ESE 6.4 km/h 14.8 km/h 87 % 0 mm
10:20 13.8 °C 11.7 °C 1008.7 hPa East 8.4 km/h 13 km/h 87 % 0 mm
10:25 13.8 °C 11.7 °C 1009 hPa East 5.6 km/h 7.4 km/h 87 % 0 mm
10:30 13.8 °C 11.7 °C 1009 hPa ESE 4 km/h 5.6 km/h 87 % 0 mm
10:35 13.8 °C 11.7 °C 1009 hPa East 7.9 km/h 11.1 km/h 87 % 0.25 mm
10:40 13.8 °C 11.7 °C 1009 hPa East 3.4 km/h 9.7 km/h 87 % 0.25 mm
10:45 13.8 °C 11.8 °C 1009 hPa East 8 km/h 14.5 km/h 88 % 0.25 mm
10:50 13.7 °C 11.9 °C 1009 hPa ESE 5.8 km/h 11.1 km/h 89 % 0.25 mm
10:55 13.6 °C 12 °C 1008.7 hPa East 4 km/h 7.4 km/h 90 % 0.51 mm
11:00 13.5 °C 12.1 °C 1008.4 hPa East 8.9 km/h 18.5 km/h 91 % 0.76 mm
11:06 13.3 °C 11.9 °C 1008.4 hPa East 8 km/h 19.3 km/h 91 % 0 mm
11:11 13.2 °C 11.9 °C 1008.4 hPa East 9.7 km/h 14.5 km/h 92 % 0 mm
11:16 13.1 °C 11.9 °C 1008.4 hPa East 8 km/h 16.1 km/h 93 % 0 mm
11:21 13 °C 11.9 °C 1008 hPa East 9.7 km/h 12.9 km/h 93 % 0 mm
11:26 12.9 °C 11.9 °C 1008 hPa East 4.8 km/h 9.7 km/h 94 % 0 mm
11:31 12.8 °C 11.9 °C 1008.4 hPa East 3.2 km/h 11.3 km/h 94 % 0 mm
11:36 12.8 °C 11.8 °C 1007.7 hPa East 4.8 km/h 9.7 km/h 94 % 0 mm
11:41 12.8 °C 12 °C 1006.7 hPa East 11.3 km/h 14.5 km/h 95 % 0 mm
11:46 12.8 °C 12 °C 1006.7 hPa East 9.7 km/h 16.1 km/h 95 % 0.51 mm
11:51 12.7 °C 11.9 °C 1006.7 hPa East 8 km/h 11.3 km/h 95 % 0.25 mm
11:56 12.6 °C 11.8 °C 1007 hPa East 4.8 km/h 9.7 km/h 95 % 0.25 mm
12:01 12.6 °C 11.8 °C 1007 hPa ENE 5.6 km/h 7.4 km/h 95 % 7.37 mm
12:06 12.4 °C 11.7 °C 1006.7 hPa East 6 km/h 13 km/h 95 % 7.87 mm
12:11 12.2 °C 11.4 °C 1006.7 hPa ENE 6.9 km/h 16.7 km/h 95 % 8.38 mm
12:16 12 °C 11.2 °C 1006.7 hPa East 15.4 km/h 22.5 km/h 95 % 8.64 mm
12:21 11.8 °C 11.1 °C 1005.6 hPa ENE 16.7 km/h 22.5 km/h 95 % 9.4 mm
12:26 11.7 °C 10.9 °C 1006 hPa SE 7.9 km/h 16.7 km/h 95 % 9.65 mm
12:31 11.5 °C 10.7 °C 1005.6 hPa ENE 12.9 km/h 18.5 km/h 95 % 10.16 mm
12:36 11.3 °C 10.6 °C 1005.3 hPa NE 12.9 km/h 24.1 km/h 95 % 10.67 mm
12:41 11.3 °C 10.7 °C 1005.3 hPa ENE 16.4 km/h 22.5 km/h 96 % 10.92 mm
12:46 11.3 °C 10.7 °C 1005.3 hPa ENE 16.1 km/h 27.8 km/h 96 % 9.65 mm
12:51 11.3 °C 10.7 °C 1005 hPa East 6.1 km/h 13 km/h 96 % 8.64 mm
12:56 11.6 °C 10.9 °C 1005 hPa East 7.7 km/h 11.1 km/h 96 % 8.13 mm
13:01 12 °C 11.6 °C 1004.6 hPa East 2.6 km/h 5.6 km/h 97 % 7.62 mm
13:06 12.7 °C 12.2 °C 1004.3 hPa East 6.8 km/h 16.7 km/h 97 % 7.37 mm
13:11 13.3 °C 13 °C 1003.9 hPa ESE 10.1 km/h 20.9 km/h 98 % 6.6 mm
13:16 13.7 °C 13.4 °C 1003.9 hPa SE 13.4 km/h 22.5 km/h 98 % 5.84 mm
13:21 13.9 °C 13.6 °C 1003.9 hPa ESE 9.5 km/h 16.7 km/h 98 % 5.08 mm
13:26 14.1 °C 13.8 °C 1003.9 hPa ESE 6.4 km/h 18.5 km/h 98 % 4.32 mm
13:31 14.3 °C 13.9 °C 1003.6 hPa ESE 6.1 km/h 13 km/h 98 % 3.56 mm
13:36 14.4 °C 14.1 °C 1003.6 hPa ESE 12.2 km/h 18.5 km/h 98 % 3.05 mm
13:41 14.4 °C 14.1 °C 1003.6 hPa ESE 15 km/h 31.5 km/h 98 % 2.29 mm
13:46 14.5 °C 14.2 °C 1003.3 hPa SE 14 km/h 29.6 km/h 98 % 2.03 mm
13:51 14.5 °C 14.2 °C 1003.3 hPa ENE 9.2 km/h 24.1 km/h 98 % 1.52 mm
13:56 14.5 °C 14.1 °C 1002.9 hPa SE 15.1 km/h 29.6 km/h 97 % 1.27 mm
14:01 14.5 °C 14.1 °C 1002.9 hPa SE 11.7 km/h 20.4 km/h 97 % 1.27 mm
14:06 14.6 °C 14.1 °C 1002.9 hPa SSE 13.8 km/h 24.1 km/h 97 % 1.27 mm
14:11 14.6 °C 14.1 °C 1002.9 hPa SE 13.7 km/h 24.1 km/h 97 % 1.52 mm
14:16 14.6 °C 14.1 °C 1002.6 hPa ESE 9.7 km/h 22.2 km/h 97 % 1.78 mm
14:21 14.7 °C 14.3 °C 1003.3 hPa ESE 12.9 km/h 24.1 km/h 98 % 2.29 mm
14:26 14.7 °C 14.3 °C 1003.3 hPa SE 8.4 km/h 19.3 km/h 98 % 2.54 mm
14:31 14.7 °C 14.4 °C 1003.9 hPa SW 12.6 km/h 27.8 km/h 98 % 3.05 mm
14:36 14.9 °C 14.6 °C 1004.3 hPa West 10.1 km/h 20.4 km/h 98 % 3.56 mm
14:41 14.9 °C 14.6 °C 1003.9 hPa West 7.6 km/h 11.1 km/h 98 % 4.06 mm
14:46 14.8 °C 14.3 °C 1003.9 hPa SW 9 km/h 14.8 km/h 97 % 4.06 mm
14:52 14.7 °C 14.2 °C 1003.6 hPa WNW 2.3 km/h 5.6 km/h 97 % 4.57 mm
14:57 14.5 °C 14.1 °C 1003.6 hPa West 3.4 km/h 6.4 km/h 97 % 4.83 mm
15:02 14.4 °C 13.9 °C 1003.6 hPa WSW 5 km/h 9.3 km/h 97 % 5.08 mm
15:07 14.3 °C 13.8 °C 1003.6 hPa West 6.3 km/h 11.1 km/h 97 % 4.83 mm
15:12 14.2 °C 13.7 °C 1003.3 hPa WNW 6 km/h 6 km/h 97 % 5.08 mm
15:17 14.1 °C 13.7 °C 1003.3 hPa WNW 2.6 km/h 5.6 km/h 97 % 5.33 mm
15:22 14 °C 13.6 °C 1002.9 hPa WNW 1.3 km/h 5.6 km/h 97 % 5.08 mm
15:27 13.9 °C 13.5 °C 1002.6 hPa NNW 0.3 km/h 3.7 km/h 97 % 5.08 mm
15:32 13.9 °C 13.4 °C 1002.6 hPa NNW 1.8 km/h 6.4 km/h 97 % 5.33 mm
15:37 13.8 °C 13.3 °C 1002.3 hPa ENE 3.2 km/h 5.6 km/h 97 % 5.08 mm
15:42 13.7 °C 13.2 °C 1001.9 hPa Calm     97 % 5.08 mm
15:47 13.6 °C 13.1 °C 1001.9 hPa ENE 1.8 km/h 5.6 km/h 97 % 4.83 mm
15:52 13.5 °C 13.1 °C 1001.6 hPa East 5.8 km/h 8 km/h 97 % 5.08 mm
15:57 13.6 °C 13.1 °C 1000.9 hPa East 6.1 km/h 9.3 km/h 97 % 4.83 mm
16:02 13.7 °C 13.2 °C 1000.9 hPa East 3.5 km/h 8 km/h 97 % 4.83 mm
16:07 13.8 °C 13.3 °C 1001.6 hPa East 1.1 km/h 3.7 km/h 97 % 4.57 mm
16:12 13.8 °C 13.4 °C 1000.9 hPa East 0.6 km/h 3.7 km/h 97 % 4.83 mm
16:17 13.9 °C 13.6 °C 1001.6 hPa Calm     98 % 4.57 mm
16:22 14 °C 13.7 °C 1002.3 hPa Calm   1.9 km/h 98 % 4.32 mm
16:27 14.1 °C 13.7 °C 1002.3 hPa Calm     98 % 4.32 mm
16:32 14.2 °C 13.9 °C 1002.3 hPa NW 0.3 km/h 5.6 km/h 98 % 4.32 mm
16:37 14.3 °C 13.9 °C 1002.3 hPa North 1.4 km/h 3.7 km/h 98 % 4.32 mm
16:42 14.3 °C 14 °C 1001.9 hPa Calm     98 % 4.06 mm
16:47 14.3 °C 13.9 °C 1001.9 hPa North 0.8 km/h 3.2 km/h 98 % 4.06 mm
16:52 14.2 °C 13.7 °C 1002.3 hPa North 0.6 km/h 3.7 km/h 97 % 3.81 mm
16:57 14.1 °C 13.6 °C 1002.3 hPa Calm   1.9 km/h 97 % 4.06 mm
17:02 14 °C 13.7 °C 1001.9 hPa Calm     98 % 3.81 mm
17:07 13.9 °C 13.6 °C 1001.9 hPa North 1.9 km/h 5.6 km/h 98 % 3.81 mm
17:12 13.9 °C 13.6 °C 1001.9 hPa Calm     98 % 3.56 mm
17:17 13.9 °C 13.6 °C 1001.9 hPa Calm     98 % 3.56 mm
17:22 13.9 °C 13.6 °C 1001.6 hPa Calm     98 % 3.56 mm
17:27 14 °C 13.7 °C 1001.9 hPa Calm     98 % 3.56 mm
17:32 14.1 °C 13.8 °C 1001.9 hPa Calm   1.9 km/h 98 % 3.3 mm
17:37 14.3 °C 13.9 °C 1001.6 hPa Calm   1.9 km/h 98 % 3.3 mm
17:42 14.5 °C 14.2 °C 1001.9 hPa Calm   1.9 km/h 98 % 3.3 mm
17:48 14.9 °C 14.6 °C 1001.6 hPa SE 0.5 km/h 5.6 km/h 98 % 3.3 mm
17:53 15.2 °C 14.9 °C 1001.9 hPa SSE 1.3 km/h 6.4 km/h 98 % 3.3 mm
17:58 15.6 °C 15.2 °C 1001.6 hPa SSE 3.7 km/h 6.4 km/h 98 % 3.05 mm
18:03 15.7 °C 15.4 °C 1001.6 hPa SE 3.4 km/h 7.4 km/h 98 % 3.05 mm
18:08 15.8 °C 15.4 °C 1001.6 hPa SE 0.5 km/h 3.7 km/h 98 % 3.05 mm
18:10 15.8 °C 15.5 °C 1001.6 hPa SE 1.4 km/h 4.8 km/h 98 % 2.79 mm
18:15 15.9 °C 15.6 °C 1001.2 hPa SE 1.3 km/h 5.6 km/h 98 % 2.79 mm
18:20 15.9 °C 15.6 °C 1001.2 hPa Calm   1.9 km/h 98 % 2.54 mm
18:25 16 °C 15.7 °C 1001.2 hPa SE 0.3 km/h 3.2 km/h 98 % 2.54 mm
18:27 16 °C 15.7 °C 1001.2 hPa SSE 6.1 km/h 9.3 km/h 98 % 2.54 mm
18:32 16 °C 15.7 °C 1000.9 hPa SE 1.6 km/h 5.6 km/h 98 % 2.54 mm
18:37 15.9 °C 15.6 °C 1000.9 hPa SSE 0.5 km/h 3.7 km/h 98 % 2.54 mm
18:42 15.9 °C 15.6 °C 1000.6 hPa SSE 0.3 km/h 1.9 km/h 98 % 2.29 mm
18:47 15.9 °C 15.6 °C 1000.6 hPa SE 4.3 km/h 9.3 km/h 98 % 2.29 mm
18:52 15.8 °C 15.5 °C 1000.2 hPa SE 3.1 km/h 7.4 km/h 98 % 2.03 mm
18:57 15.8 °C 15.4 °C 1000.2 hPa East 2.9 km/h 5.6 km/h 98 % 1.78 mm
19:02 15.7 °C 15.4 °C 1000.2 hPa ESE 1.1 km/h 3.7 km/h 98 % 1.52 mm
19:07 15.7 °C 15.3 °C 1000.2 hPa ESE 0.2 km/h 1.9 km/h 98 % 1.27 mm
19:12 15.6 °C 15.3 °C 1000.9 hPa South 2.3 km/h 5.6 km/h 98 % 1.27 mm
19:17 15.6 °C 15.2 °C 1001.6 hPa Calm   3.7 km/h 98 % 1.02 mm
19:22 15.6 °C 15.2 °C 1001.6 hPa Calm   1.9 km/h 98 % 0.76 mm
19:27 15.5 °C 15.2 °C 1001.2 hPa SSE 0.8 km/h 3.7 km/h 98 % 0.76 mm
19:32 15.4 °C 15.1 °C 1001.2 hPa SE 1.6 km/h 4.8 km/h 98 % 0.51 mm
19:37 15.4 °C 15.1 °C 1001.2 hPa WSW 1.9 km/h 5.6 km/h 98 % 0.25 mm
19:42 15.4 °C 15.1 °C 1001.6 hPa Calm   3.2 km/h 98 % 0.25 mm
19:47 15.3 °C 15 °C 1001.2 hPa Calm     98 % 0 mm
19:52 15.3 °C 15 °C 1001.6 hPa Calm   1.6 km/h 98 % 0 mm
19:55 15.3 °C 14.9 °C 1001.6 hPa South 3.5 km/h 5.6 km/h 98 % 0 mm
20:00 15.2 °C 14.9 °C 1001.2 hPa South 0.6 km/h 1.9 km/h 98 % 0 mm
20:05 15.2 °C 14.9 °C 1001.2 hPa Calm     98 % 0 mm
20:10 15.2 °C 14.8 °C 1001.2 hPa SE 6.4 km/h 11.1 km/h 98 % 0 mm
20:15 15.1 °C 14.7 °C 1001.2 hPa Calm   3.7 km/h 98 % 0 mm
20:20 15 °C 14.7 °C 1000.9 hPa SE 0.8 km/h 3.2 km/h 98 % 0 mm
20:25 14.9 °C 14.6 °C 1000.9 hPa SE 0.3 km/h 1.6 km/h 98 % 0 mm
20:30 14.8 °C 14.5 °C 1000.6 hPa SE 0.2 km/h 1.9 km/h 98 % 0 mm
20:35 14.8 °C 14.4 °C 1000.6 hPa SE 0.5 km/h 5.6 km/h 98 % 0 mm
20:36 14.8 °C 14.5 °C 1000.9 hPa SE 1.6 km/h 6.4 km/h 98 % 0 mm
20:40 14.8 °C 14.4 °C 1000.6 hPa SE 3.2 km/h 5.6 km/h 98 % 0 mm
20:45 14.7 °C 14.4 °C 1000.9 hPa SE 1.6 km/h 4.8 km/h 98 % 0 mm
20:50 14.7 °C 14.3 °C 1000.9 hPa SE 1.4 km/h 5.6 km/h 98 % 0 mm
20:55 14.7 °C 14.3 °C 1000.6 hPa ESE 1.6 km/h 11.3 km/h 98 % 0 mm
20:56 14.7 °C 14.3 °C 1000.9 hPa East 0.5 km/h 5.6 km/h 98 % 0 mm
21:01 14.6 °C 14.3 °C 1000.6 hPa SE 0.2 km/h 1.9 km/h 98 % 0 mm
21:06 14.6 °C 14.2 °C 1000.6 hPa Calm   1.9 km/h 98 % 0 mm
21:11 14.6 °C 14.2 °C 1000.6 hPa SE 3.2 km/h 9.3 km/h 98 % 0 mm
21:16 14.6 °C 14.2 °C 1000.6 hPa SE 0.6 km/h 5.6 km/h 98 % 0 mm
21:21 14.6 °C 14.2 °C 1000.6 hPa SE 5.1 km/h 13 km/h 98 % 0 mm
21:26 14.5 °C 14.2 °C 1000.6 hPa South 6 km/h 13 km/h 98 % 0 mm
21:31 14.6 °C 14.2 °C 1000.6 hPa SE 3.7 km/h 14.8 km/h 98 % 0 mm
21:36 14.6 °C 14.2 °C 1000.6 hPa SE 1.8 km/h 5.6 km/h 98 % 0 mm
21:41 14.6 °C 14.2 °C 1000.6 hPa SE 3.4 km/h 5.6 km/h 98 % 0 mm
21:46 14.6 °C 14.3 °C 1000.6 hPa SSE 4.7 km/h 7.4 km/h 98 % 0 mm
21:51 14.6 °C 14.3 °C 1000.2 hPa SE 6.6 km/h 11.3 km/h 98 % 0 mm
21:56 14.6 °C 14.3 °C 1000.6 hPa SE 3.2 km/h 11.3 km/h 98 % 0 mm
22:01 14.7 °C 14.3 °C 1000.6 hPa SE 6.8 km/h 9.3 km/h 98 % 0 mm
22:05 14.7 °C 14.4 °C 1000.2 hPa ESE 1.6 km/h 5.6 km/h 98 % 0 mm
22:10 14.8 °C 14.4 °C 1000.2 hPa SE 2.1 km/h 5.6 km/h 98 % 0 mm
22:15 14.8 °C 14.5 °C 1000.2 hPa SE 8.2 km/h 14.8 km/h 98 % 0 mm
22:20 15.1 °C 14.7 °C 999.9 hPa ESE 4.3 km/h 7.4 km/h 98 % 0 mm
22:25 15.2 °C 14.9 °C 999.9 hPa SSE 6.3 km/h 11.1 km/h 98 % 0 mm
22:30 15.3 °C 14.9 °C 999.5 hPa SSE 1.8 km/h 9.3 km/h 98 % 0 mm
22:35 15.3 °C 14.9 °C 999.5 hPa SSE 9.3 km/h 14.8 km/h 98 % 0 mm
22:40 15.2 °C 14.9 °C 999.9 hPa South 9.3 km/h 16.7 km/h 98 % 0 mm
22:45 15.2 °C 14.9 °C 999.9 hPa SE 7.9 km/h 9.3 km/h 98 % 0 mm
22:50 15.2 °C 14.9 °C 999.9 hPa SE 12.4 km/h 25.9 km/h 98 % 0 mm
22:55 15.3 °C 14.9 °C 999.5 hPa SSE 10.5 km/h 18.5 km/h 98 % 0 mm
23:00 15.3 °C 15 °C 999.5 hPa SE 8.7 km/h 14.8 km/h 98 % 0 mm
23:04 15.4 °C 15.1 °C 999.5 hPa SE 4.3 km/h 14.8 km/h 98 % 0 mm
23:09 15.4 °C 15.1 °C 999.5 hPa ESE 8 km/h 11.3 km/h 98 % 0 mm
23:14 15.4 °C 15.1 °C 999.5 hPa SE 3.7 km/h 5.6 km/h 98 % 0 mm
23:19 15.4 °C 15.1 °C 999.5 hPa SSE 8.4 km/h 13 km/h 98 % 0 mm
23:24 15.6 °C 15.2 °C 999.5 hPa SSE 10.1 km/h 14.8 km/h 98 % 0 mm
23:29 15.6 °C 15.2 °C 999.5 hPa SSE 8.7 km/h 11.3 km/h 98 % 0 mm
23:35 15.7 °C 15.3 °C 999.5 hPa SE 6 km/h 13 km/h 98 % 0 mm
23:40 15.7 °C 15.4 °C 999.5 hPa SSE 11.9 km/h 18.5 km/h 98 % 0 mm
23:45 15.9 °C 15.6 °C 999.5 hPa South 4.7 km/h 22.2 km/h 98 % 0 mm
23:50 15.9 °C 15.6 °C 999.2 hPa SSE 5.5 km/h 18.5 km/h 98 % 0 mm
23:55 16.1 °C 15.7 °C 999.2 hPa SSE 5.3 km/h 13 km/h 98 % 0 mm
Crab Meadow Weather
Compliments of Weather Underground - 3 mb

Script developed by  Jim McMurry - jmcmurry@mwt.net Adapted for the template by  Wim van der Kuil - Leuven-Template.eu

Recycling: Americans use 85,000,000 tons of paper a year; about 680 pounds per person.